This is the latest recevied weather packets stored in our database for station/object W9QL-13. If no packets are shown the sender has not sent any weather packets the latest 1 day(s).
| Time | Temp. | Humidity | Pressure | Rain* | Wind** | Luminosity | Snow |
|---|---|---|---|---|---|---|---|
| 1777984800 | 8.89° C | 52% | 1007.2 hPa | 0 mm | 0.89 m/s, 348° | - | - |
| 1777984470 | 8.89° C | 52% | 1007.3 hPa | 0 mm | 0.45 m/s, 7° | - | - |
| 1777984170 | 8.89° C | 53% | 1007.4 hPa | 0 mm | 0.45 m/s, 342° | - | - |
| 1777983840 | 8.89° C | 52% | 1007.5 hPa | 0 mm | 1.34 m/s, 350° | - | - |
| 1777983509 | 8.89° C | 53% | 1007.4 hPa | 0 mm | 0.89 m/s, 352° | - | - |
| 1777983209 | 8.89° C | 53% | 1007.3 hPa | 0 mm | 0 m/s | - | - |
| 1777982909 | 8.89° C | 53% | 1007.5 hPa | 0 mm | 0.45 m/s, 321° | - | - |
| 1777982609 | 8.89° C | 52% | 1007.6 hPa | 0 mm | 0 m/s | - | - |
| 1777982309 | 8.89° C | 51% | 1007.4 hPa | 0 mm | 0 m/s | - | - |
| 1777982009 | 8.89° C | 50% | 1007.3 hPa | 0 mm | 0 m/s | - | - |
| 1777981709 | 8.89° C | 49% | 1007 hPa | 0 mm | 0.89 m/s, 0° | - | - |
| 1777981409 | 8.89° C | 50% | 1006.6 hPa | 0 mm | 1.34 m/s, 353° | - | - |
| 1777981109 | 8.89° C | 50% | 1006.6 hPa | 0 mm | 2.68 m/s, 2° | - | - |
| 1777980809 | 8.89° C | 51% | 1006.2 hPa | 0 mm | 2.24 m/s, 355° | - | - |
| 1777980479 | 8.89° C | 51% | 1006.6 hPa | 0 mm | 0 m/s | - | - |
| 1777980179 | 8.89° C | 50% | 1005.2 hPa | 0 mm | 0.89 m/s, 13° | - | - |
| 1777979849 | 8.89° C | 50% | 1005.5 hPa | 0 mm | 0.45 m/s, 336° | - | - |
| 1777979519 | 8.89° C | 51% | 1005.4 hPa | 0 mm | 0.45 m/s, 358° | - | - |
| 1777979219 | 8.89° C | 50% | 1005.8 hPa | 0 mm | 0.45 m/s, 38° | - | - |
| 1777978919 | 8.89° C | 49% | 1005.9 hPa | 0 mm | 0.45 m/s, 21° | - | - |
| 1777978619 | 8.89° C | 50% | 1006.1 hPa | 0 mm | 0 m/s | - | - |
| 1777978290 | 8.89° C | 49% | 1006.1 hPa | 0 mm | 0.89 m/s, 338° | - | - |
| 1777977959 | 8.89° C | 48% | 1006.1 hPa | 0 mm | 2.24 m/s, 10° | - | - |
| 1777977659 | 8.89° C | 49% | 1006.2 hPa | 0 mm | 2.24 m/s, 344° | - | - |
| 1777977329 | 8.89° C | 49% | 1005.2 hPa | 0 mm | 2.24 m/s, 0° | - | - |
* Rain latest hour (hover to see other rain measurements)
** Current wind speed in m/s (hover to see current wind gust speed)